This demonstration page uses our WeatherBlox Daily Observations layout. Learn more.

40.92945, -100.16068

Hourly Observations for March 19, 2019

Temp ( °F °C ) Dew Point ( °F °C ) Humidity (%) Winds ( mph kmh ) Pressure ( in mb ) Visibility ( mi km ) Precip ( " mm )
12:15 am 00:15 Cloudy 39 4 32 -0.1 75 75 E 8 13 30.3 1026 10 16.09344 0 0
12:35 am 00:35 Cloudy 39 4 32 -0.1 75 75 ESE 9 15 30.27 1025 10 16.09344 0 0
12:55 am 00:55 Cloudy 39 4 31 -0.3 74 74 ESE 7 11 30.27 1025 10 16.09344 0 0
1:15 am 01:15 Cloudy with Light Drizzle 39 4.1 31 -0.5 72 72 SE 9 15 30.27 1025 10 16.09344 0 0
1:35 am 01:35 Cloudy 38 3.6 31 -0.4 75 75 SE 8 13 30.27 1025 10 16.09344 0 0
1:55 am 01:55 Cloudy with Light Rain 39 4.1 31 -0.7 71 71 ESE 8 13 30.27 1025 10 16.09344 0 0
2:15 am 02:15 Cloudy 39 4.1 31 -0.6 72 72 E 7 11 30.27 1025 10 16.09344 0 0
2:35 am 02:35 Cloudy 38 3.2 32 0 80 80 ENE 8 13 30.27 1025 10 16.09344 0 0
2:55 am 02:55 Cloudy 38 3.2 31 -0.3 78 78 E 10 17 30.24 1024 10 16.09344 0 0
3:15 am 03:15 Cloudy 38 3.6 31 -0.8 73 73 E 8 13 30.24 1024 10 16.09344 0 0
3:35 am 03:35 Cloudy 39 3.8 30 -1.1 71 71 E 8 13 30.24 1024 10 16.09344 0 0
3:55 am 03:55 Cloudy 38 3.3 31 -0.8 75 75 E 6 9 30.24 1024 10 16.09344 0 0
4:15 am 04:15 Cloudy 38 3.5 30 -1 73 73 ENE 6 9 30.24 1024 10 16.09344 0 0
4:35 am 04:35 Cloudy 38 3.3 31 -0.7 75 75 ESE 5 7 30.21 1023 10 16.09344 0 0
4:55 am 04:55 Cloudy with Light Drizzle 38 3.3 31 -0.8 75 75 E 5 7 30.21 1023 10 16.09344 0 0
5:15 am 05:15 Cloudy with Light Rain 37 3 32 0 81 81 SE 9 15 30.21 1023 10 16.09344 0 0
5:35 am 05:35 Cloudy with Light Rain 37 3 32 0 81 81 Calm 30.21 1023 7 11.265408 0 0
5:55 am 05:55 Cloudy with Light Rain 37 2.5 33 0.3 86 86 N 5 7 30.24 1024 5 8.04672 0.02 0.508
6:15 am 06:15 Cloudy with Light Rain 36 2.2 33 0.5 89 89 NE 5 7 30.24 1024 1.75 2.816352 0.04 1.016
6:35 am 06:35 Cloudy with Light Rain 36 2 33 0.5 90 90 Calm 30.27 1025 2 3.218688 0.13 3.302
6:55 am 06:55 Cloudy with Rain 35 1.9 33 0.7 92 92 E 5 7 30.27 1025 3 4.828032 0.19 4.826
7:15 am 07:15 Cloudy with Rain 35 1.9 33 0.8 93 93 ENE 6 9 30.27 1025 4 6.437376 0.01 0.254
7:35 am 07:35 Cloudy with Light Rain 35 1.9 34 0.9 93 93 E 6 9 30.27 1025 4 6.437376 0.03 0.762
7:55 am 07:55 Cloudy with Rain 35 1.8 34 1 95 95 WNW 6 9 30.27 1025 3 4.828032 0.05 1.27
8:15 am 08:15 Cloudy with Light Rain 35 1.7 33 0.8 94 94 NE 5 7 30.27 1025 4 6.437376 0.01 0.254
8:35 am 08:35 Cloudy with Light Rain 35 1.6 34 0.9 95 95 E 6 9 30.27 1025 3 4.828032 0.01 0.254
8:55 am 08:55 Cloudy with Light Drizzle 35 1.7 34 1 95 95 E 7 11 30.27 1025 4 6.437376 0.01 0.254
9:15 am 09:15 Cloudy with Light Drizzle 35 1.7 34 1 95 95 E 7 11 30.27 1025 4 6.437376 0 0
9:35 am 09:35 Cloudy with Light Drizzle 35 1.7 34 0.9 94 94 ENE 5 7 30.27 1025 4 6.437376 0 0
9:55 am 09:55 Cloudy with Light Drizzle 35 1.8 34 1 95 95 ESE 3 6 30.27 1025 4 6.437376 0 0
10:15 am 10:15 Cloudy with Light Rain 36 2 34 1 93 93 Calm 30.27 1025 5 8.04672 0 0
10:35 am 10:35 Cloudy with Light Drizzle 36 2.1 34 1.2 94 94 SSE 3 6 30.24 1024 4 6.437376 0 0
10:55 am 10:55 Cloudy with Mist and Fog 36 2.3 35 1.5 95 95 Calm 30.24 1024 4 6.437376 0 0
11:15 am 11:15 Cloudy with Mist and Fog 37 2.5 35 1.5 93 93 Calm 30.27 1025 5 8.04672 0 0
11:35 am 11:35 Cloudy with Mist and Fog 37 2.6 35 1.6 93 93 N 5 7 30.27 1025 4 6.437376 0 0
11:55 am 11:55 Cloudy with Mist and Fog 37 2.6 35 1.5 93 93 N 3 6 30.27 1025 5 8.04672 0 0
12:15 pm 12:15 Cloudy with Mist and Fog 37 2.7 35 1.6 93 93 NNW 6 9 30.27 1025 5 8.04672 0 0
12:35 pm 12:35 Cloudy 37 3 35 1.7 91 91 N 7 11 30.27 1025 10 16.09344 0 0
12:55 pm 12:55 Cloudy 38 3.1 35 1.8 91 91 N 6 9 30.27 1025 10 16.09344 0 0
1:15 pm 13:15 Cloudy 37 3 35 1.6 91 91 NNE 5 7 30.27 1025 10 16.09344 0 0
1:35 pm 13:35 Cloudy 38 3.1 35 1.7 91 91 NNE 5 7 30.27 1025 10 16.09344 0 0
1:55 pm 13:55 Cloudy 38 3.6 36 2.1 90 90 N 6 9 30.27 1025 10 16.09344 0 0
2:15 pm 14:15 Cloudy 39 4.1 36 2.4 89 89 N 8 13 30.27 1025 10 16.09344 0 0
2:35 pm 14:35 Cloudy 40 4.3 37 2.5 88 88 N 7 11 30.27 1025 10 16.09344 0 0
2:55 pm 14:55 Cloudy 41 4.8 37 2.6 86 86 N 10 17 30.27 1025 10 16.09344 0 0
3:15 pm 15:15 Cloudy 40 4.7 36 2.2 84 84 N 12 19 30.27 1025 10 16.09344 0 0
3:35 pm 15:35 Cloudy 41 4.9 36 2.3 83 83 N 10 17 30.27 1025 10 16.09344 0 0
3:55 pm 15:55 Cloudy 41 5.1 37 2.8 85 85 N 10 17 30.27 1025 10 16.09344 0 0
4:15 pm 16:15 Cloudy 41 5.2 36 2.4 82 82 NNE 9 15 30.27 1025 10 16.09344 0 0
4:35 pm 16:35 Cloudy 42 5.5 37 2.6 82 82 NNE 10 17 30.24 1024 10 16.09344 0 0
4:55 pm 16:55 Cloudy 42 5.5 37 2.6 82 82 NNE 10 17 30.24 1024 10 16.09344 0 0
5:15 pm 17:15 Cloudy 42 5.5 37 2.7 82 82 NNE 10 17 30.24 1024 10 16.09344 0 0
5:35 pm 17:35 Cloudy 42 5.4 37 2.8 84 84 NNE 9 15 30.27 1025 10 16.09344 0 0
5:55 pm 17:55 Cloudy 42 5.5 37 3 84 84 N 10 17 30.24 1024 10 16.09344 0 0
6:15 pm 18:15 Cloudy 41 5.2 37 2.7 84 84 N 9 15 30.27 1025 10 16.09344 0 0
6:35 pm 18:35 Cloudy with Light Drizzle 41 5.1 37 2.9 86 86 N 8 13 30.27 1025 10 16.09344 0 0
6:55 pm 18:55 Cloudy with Light Drizzle 41 5 37 2.6 85 85 N 10 17 30.27 1025 10 16.09344 0 0
7:15 pm 19:15 Cloudy with Light Rain 40 4.7 37 2.5 86 86 N 9 15 30.27 1025 10 16.09344 0 0
7:35 pm 19:35 Cloudy with Drizzle 40 4.5 37 2.5 87 87 N 9 15 30.27 1025 10 16.09344 0 0
7:55 pm 19:55 Cloudy with Drizzle 40 4.2 36 2.2 87 87 N 7 11 30.3 1026 10 16.09344 0 0
8:15 pm 20:15 Cloudy with Drizzle 39 4 36 2.2 88 88 NNW 6 9 30.3 1026 10 16.09344 0 0
8:35 pm 20:35 Cloudy 39 3.8 36 2.2 89 89 N 5 7 30.3 1026 10 16.09344 0 0
8:55 pm 20:55 Cloudy 38 3.6 36 2 89 89 N 3 6 30.3 1026 10 16.09344 0 0
9:15 pm 21:15 Cloudy 38 3.6 36 2 89 89 NNE 3 6 30.3 1026 10 16.09344 0 0
9:35 pm 21:35 Cloudy 37 2.7 34 1.2 90 90 NNW 5 7 30.3 1026 10 16.09344 0 0
9:55 pm 21:55 Cloudy 36 2.3 34 1 91 91 NNE 7 11 30.33 1027 10 16.09344 0 0
10:15 pm 22:15 Mostly Cloudy 35 1.6 32 0.1 90 90 NW 7 11 30.33 1027 10 16.09344 0 0
10:35 pm 22:35 Partly Cloudy 34 1.2 32 0 92 92 NW 6 9 30.33 1027 10 16.09344 0 0
10:55 pm 22:55 Clear 34 1 32 0 93 93 WNW 7 11 30.36 1028 7 11.265408 0 0
11:15 pm 23:15 Clear 33 0.8 32 0 94 94 NW 8 13 30.36 1028 10 16.09344 0 0
11:35 pm 23:35 Clear 33 0.5 31 -0.5 93 93 NW 5 7 30.36 1028 10 16.09344 0 0
11:55 pm 23:55 Clear 32 0.1 31 -0.8 94 94 WNW 6 9 30.36 1028 10 16.09344 0 0

Powered by AerisWeather